When you browse on this site, cookies collect data to enhance your experience and personalize the content and advertising you see.
Visit our Privacy Policy to learn more. By continuing to use the site, you agree to this use of cookies and data.

Hourly Weather Isit

Today, 2 July, Thursday

Time Temperature Precipitation Wind Pressure Humidity
00:00 +21°C° 0.5 mm 1 mps 737 mmHg 76%
01:00 +20°C° 0.5 mm 1 mps 736 mmHg 82%
02:00 +19°C° 0 mm 1 mps 736 mmHg 88%
03:00 +19°C° 0.3 mm 1 mps 736 mmHg 88%
04:00 +19°C° 0.3 mm 2 mps 736 mmHg 87%
05:00 +20°C° 0.3 mm 2 mps 736 mmHg 87%
06:00 +23°C° 0 mm 2 mps 736 mmHg 76%
07:00 +25°C° 0 mm 3 mps 735 mmHg 65%
08:00 +27°C° 0 mm 3 mps 735 mmHg 51%
09:00 +29°C° 0 mm 3 mps 735 mmHg 46%
10:00 +30°C° 0 mm 3 mps 735 mmHg 42%
11:00 +31°C° 0 mm 3 mps 734 mmHg 38%
12:00 +32°C° 0 mm 4 mps 734 mmHg 38%
13:00 +32°C° 0 mm 4 mps 734 mmHg 38%
14:00 +32°C° 0 mm 4 mps 734 mmHg 37%
15:00 +29°C° 0.2 mm 4 mps 734 mmHg 46%
16:00 +27°C° 0.2 mm 3 mps 734 mmHg 56%
17:00 +25°C° 0.2 mm 3 mps 733 mmHg 65%
18:00 +24°C° 0 mm 2 mps 733 mmHg 59%
19:00 +24°C° 0 mm 2 mps 733 mmHg 54%
20:00 +22°C° 0 mm 1 mps 733 mmHg 58%
21:00 +20°C° 0 mm 2 mps 733 mmHg 62%
22:00 +19°C° 0 mm 2 mps 733 mmHg 65%
23:00 +18°C° 0 mm 2 mps 733 mmHg 69%

Tomorrow, 3 July, Friday

Time Temperature Precipitation Wind Pressure Humidity
00:00 +17°C° 0 mm 2 mps 732 mmHg 69%
01:00 +17°C° 0 mm 2 mps 732 mmHg 70%
02:00 +16°C° 0 mm 2 mps 732 mmHg 71%
03:00 +16°C° 0 mm 2 mps 732 mmHg 69%
04:00 +17°C° 0 mm 2 mps 732 mmHg 67%
05:00 +17°C° 0 mm 2 mps 732 mmHg 65%
06:00 +17°C° 0.1 mm 2 mps 732 mmHg 68%
07:00 +17°C° 0.1 mm 2 mps 732 mmHg 70%
08:00 +17°C° 0.1 mm 2 mps 732 mmHg 73%
09:00 +18°C° 0.9 mm 3 mps 731 mmHg 74%
10:00 +18°C° 0.9 mm 3 mps 731 mmHg 75%
11:00 +18°C° 0.9 mm 4 mps 731 mmHg 76%
12:00 +19°C° 0.7 mm 4 mps 731 mmHg 72%
13:00 +19°C° 0.7 mm 4 mps 731 mmHg 67%
14:00 +20°C° 0.7 mm 5 mps 731 mmHg 63%
15:00 +20°C° 0.2 mm 4 mps 731 mmHg 59%
16:00 +20°C° 0.2 mm 4 mps 731 mmHg 54%
17:00 +19°C° 0.2 mm 4 mps 731 mmHg 50%
18:00 +18°C° 0 mm 3 mps 731 mmHg 54%
19:00 +18°C° 0 mm 3 mps 731 mmHg 59%
20:00 +17°C° 0 mm 3 mps 731 mmHg 63%
21:00 +14°C° 0 mm 3 mps 730 mmHg 69%
22:00 +14°C° 0 mm 2 mps 730 mmHg 76%
23:00 +13°C° 0 mm 2 mps 730 mmHg 83%

Day after tomorrow, 4 July, Saturday

Time Temperature Precipitation Wind Pressure Humidity
00:00 +13°C° 0.1 mm 2 mps 730 mmHg 85%
01:00 +13°C° 0.1 mm 2 mps 730 mmHg 88%
02:00 +12°C° 0.1 mm 2 mps 730 mmHg 90%
03:00 +12°C° 0 mm 3 mps 729 mmHg 89%
04:00 +12°C° 0 mm 3 mps 729 mmHg 87%
05:00 +12°C° 0 mm 3 mps 729 mmHg 85%
06:00 +13°C° 0.1 mm 4 mps 729 mmHg 80%
07:00 +15°C° 0.1 mm 4 mps 729 mmHg 75%
08:00 +17°C° 0.1 mm 4 mps 728 mmHg 71%
09:00 +15°C° 0.5 mm 4 mps 728 mmHg 76%
10:00 +15°C° 0.5 mm 5 mps 728 mmHg 81%
11:00 +14°C° 0.5 mm 5 mps 728 mmHg 86%
12:00 +15°C° 0.2 mm 5 mps 728 mmHg 80%
13:00 +15°C° 0.2 mm 4 mps 728 mmHg 74%
14:00 +17°C° 0.2 mm 4 mps 728 mmHg 68%
15:00 +17°C° 0 mm 4 mps 728 mmHg 62%
16:00 +18°C° 0 mm 3 mps 728 mmHg 56%
17:00 +19°C° 0 mm 2 mps 728 mmHg 50%
18:00 +18°C° 0 mm 2 mps 728 mmHg 56%
19:00 +17°C° 0 mm 2 mps 728 mmHg 62%
20:00 +15°C° 0 mm 1 mps 728 mmHg 68%
21:00 +14°C° 0 mm 1 mps 728 mmHg 68%
22:00 +14°C° 0 mm 1 mps 728 mmHg 68%
23:00 +13°C° 0 mm 1 mps 728 mmHg 68%

5 July, Sunday

Time Temperature Precipitation Wind Pressure Humidity
00:00 +12°C° 0 mm 1 mps 728 mmHg 69%
01:00 +11°C° 0 mm 1 mps 728 mmHg 70%
02:00 +10°C° 0 mm 1 mps 728 mmHg 72%
03:00 +11°C° 0 mm 1 mps 728 mmHg 69%
04:00 +12°C° 0 mm 1 mps 728 mmHg 67%
05:00 +13°C° 0 mm 1 mps 728 mmHg 65%
06:00 +14°C° 0 mm 2 mps 728 mmHg 61%
07:00 +15°C° 0 mm 2 mps 728 mmHg 56%
08:00 +17°C° 0 mm 3 mps 729 mmHg 51%
09:00 +17°C° 0 mm 3 mps 728 mmHg 49%
10:00 +18°C° 0 mm 3 mps 728 mmHg 47%
11:00 +19°C° 0 mm 4 mps 728 mmHg 46%
12:00 +19°C° 0.1 mm 3 mps 728 mmHg 46%
13:00 +19°C° 0.1 mm 3 mps 728 mmHg 46%
14:00 +19°C° 0.1 mm 3 mps 728 mmHg 46%
15:00 +19°C° 0.1 mm 3 mps 728 mmHg 49%
16:00 +18°C° 0.1 mm 2 mps 728 mmHg 51%
17:00 +18°C° 0.1 mm 2 mps 728 mmHg 54%
18:00 +16°C° 0.2 mm 2 mps 729 mmHg 64%
19:00 +15°C° 0.2 mm 2 mps 729 mmHg 74%
20:00 +13°C° 0.2 mm 1 mps 729 mmHg 84%
21:00 +13°C° 0 mm 1 mps 729 mmHg 86%
22:00 +12°C° 0 mm 1 mps 730 mmHg 87%
23:00 +11°C° 0 mm 1 mps 730 mmHg 89%

6 July, Monday

Time Temperature Precipitation Wind Pressure Humidity
00:00 +10°C° 0 mm 1 mps 730 mmHg 89%
01:00 +10°C° 0 mm 1 mps 730 mmHg 89%
02:00 +9°C° 0 mm 1 mps 731 mmHg 89%
03:00 +10°C° 0 mm 1 mps 731 mmHg 88%
04:00 +11°C° 0 mm 1 mps 731 mmHg 87%
05:00 +12°C° 0 mm 1 mps 731 mmHg 85%
06:00 +14°C° 0 mm 1 mps 731 mmHg 73%
07:00 +16°C° 0 mm 1 mps 731 mmHg 60%
08:00 +19°C° 0 mm 1 mps 731 mmHg 47%
09:00 +20°C° 0 mm 1 mps 731 mmHg 44%
10:00 +20°C° 0 mm 1 mps 731 mmHg 41%
11:00 +21°C° 0 mm 1 mps 731 mmHg 37%
12:00 +21°C° 0 mm 1 mps 731 mmHg 37%
13:00 +22°C° 0 mm 1 mps 731 mmHg 36%
14:00 +22°C° 0 mm 1 mps 731 mmHg 35%
15:00 +22°C° 0 mm 1 mps 731 mmHg 38%
16:00 +21°C° 0 mm 1 mps 731 mmHg 40%
17:00 +21°C° 0 mm 1 mps 731 mmHg 43%
18:00 +19°C° 0 mm 1 mps 731 mmHg 48%
19:00 +18°C° 0 mm 1 mps 732 mmHg 54%
20:00 +15°C° 0 mm 1 mps 732 mmHg 60%
21:00 +15°C° 0 mm 1 mps 732 mmHg 60%
22:00 +14°C° 0 mm 1 mps 732 mmHg 59%
23:00 +12°C° 0 mm 0 mps 732 mmHg 59%

7 July, Tuesday

Time Temperature Precipitation Wind Pressure Humidity
00:00 +12°C° 0 mm 0 mps 732 mmHg 61%
01:00 +11°C° 0 mm 0 mps 732 mmHg 62%
02:00 +11°C° 0 mm 0 mps 733 mmHg 64%
03:00 +11°C° 0 mm 0 mps 733 mmHg 64%
04:00 +13°C° 0 mm 1 mps 733 mmHg 64%
05:00 +14°C° 0 mm 1 mps 733 mmHg 64%
06:00 +15°C° 0 mm 1 mps 733 mmHg 60%
07:00 +18°C° 0 mm 1 mps 733 mmHg 56%
08:00 +19°C° 0 mm 1 mps 733 mmHg 51%
09:00 +20°C° 0.2 mm 1 mps 733 mmHg 49%
10:00 +21°C° 0.2 mm 1 mps 733 mmHg 46%
11:00 +21°C° 0.2 mm 1 mps 733 mmHg 44%
12:00 +20°C° 0.1 mm 2 mps 732 mmHg 47%
13:00 +19°C° 0.1 mm 2 mps 732 mmHg 50%
14:00 +19°C° 0.1 mm 2 mps 732 mmHg 53%
15:00 +19°C° 0 mm 2 mps 732 mmHg 51%
16:00 +21°C° 0 mm 1 mps 732 mmHg 49%
17:00 +21°C° 0 mm 1 mps 732 mmHg 47%
18:00 +19°C° 0.2 mm 1 mps 732 mmHg 59%
19:00 +16°C° 0.2 mm 1 mps 732 mmHg 71%
20:00 +14°C° 0.2 mm 1 mps 732 mmHg 83%
21:00 +13°C° 0 mm 1 mps 732 mmHg 86%
22:00 +11°C° 0 mm 1 mps 732 mmHg 89%
23:00 +10°C° 0 mm 1 mps 733 mmHg 92%
Show more